CAPE
2210 2429 1885 2340 2199 2314 2539 2594 2789 3044 2531 2306 2335 2376 2384 2487 2626 2619 2547 2863 2470 3400 3366 3630 2971 2830 3135 3500 4332 3406 5025 3487 3102 2750 2663 2794 2592 2411 2228 1649 1231 1085
2160 2359 2565 2256 2281 2344 2321 2410 2547 2805 2786 2396 2374 2208 2057 2484 2664 2387 2583 2785 2884 3057 3564 3732 3405 3170 3642 3566 4075 3646 3462 3967 4029 3384 2658 2895 2318 2095 1907 1482 1225 1226
2150 2273 2260 2052 2264 2159 2246 2072 2144 2428 2623 2507 2516 2302 2236 2596 2485 2456 2358 2805 2816 3122 3362 3502 3652 3473 3640 3933 3885 3908 3402 3938 3801 3330 2752 2761 2328 2257 1968 1506 1087 1051
2320 2210 2047 1969 2073 2008 2017 1862 1721 2100 2271 2530 2256 2994 2481 2497 2141 2450 2285 3662 2482 2794 3246 3435 3375 3512 3630 3915 3746 3969 3633 3426 3810 3839 3143 2769 3082 2526 2257 1773 1873 1073
2433 2248 2045 1954 1799 1876 1582 1547 1703 1808 2189 2286 2177 2062 2372 2199 2189 2316 2752 3061 2463 2686 3019 3261 3325 3261 3553 3492 3473 3419 3406 3422 3586 3660 3683 3258 2712 2957 2912 2504 1962 1886
2350 2327 2068 1925 1813 1709 1362 1052 1346 1433 1871 1932 2060 2015 2096 2147 2379 2418 3082 2835 2614 2830 2660 2982 3019 3229 3332 3432 3405 3542 3556 3400 3198 3788 3734 3835 3585 3192 3042 2590 2470 2276
2223 2348 2189 1882 1744 1558 1369 1187 1129 1122 1043 1697 1759 1804 1915 2608 2203 2263 2677 2734 2535 2680 2549 2599 2744 2813 3126 3137 3288 3303 3485 3168 3127 3549 3277 3458 3533 3288 2960 2580 2260 2394
2215 2256 2229 1849 1766 1651 1153 1130 1029 1179 924 1065 1511 1670 1806 2056 2253 2267 2192 2411 2302 2381 2166 2422 2462 2275 2892 2725 3190 3418 3518 3752 3384 3274 3250 3377 3346 3106 3020 3438 2216 2443
2210 2247 2178 2044 1830 1637 1340 1016 940 1104 998 924 1302 1416 1687 1803 2042 2264 2213 2360 2195 2008 2001 2018 2392 2355 2685 2738 2938 3118 3128 3161 3063 3434 3370 3231 3457 3181 3063 3010 3189 2897
2254 2358 2197 1938 1670 1573 1205 828 791 790 1057 889 850 1149 1228 1564 1813 1909 2111 2169 2043 1990 1936 1902 2508 2386 2495 2529 2793 2827 3028 2980 2858 2950 3341 3394 3434 3480 3319 3179 2806 2962
2075 2328 2252 2066 1710 1459 1131 766 632 554 835 839 617 751 1001 1164 1572 1643 1658 2177 2016 1914 2228 1611 2466 2418 2160 2105 2508 2818 2871 2819 2730 2864 3162 3448 3511 3429 3514 2865 2813 2748
1746 1731 1908 2036 1819 1413 1094 761 548 453 648 769 704 364 566 852 1132 1507 1500 1952 2050 1951 2311 1986 2285 2369 2074 1872 1927 2457 2887 2847 2732 2647 2769 3144 3244 3114 2878 2952 2751 2633
2002 1365 1439 1615 1672 1380 1005 711 724 542 630 623 645 537 245 565 616 1323 1663 1717 1800 1732 1782 2103 2072 2333 2181 2022 1934 1902 2187 2663 2650 2590 2492 2388 2543 2601 2570 2516 2467 2463
1702 1758 1530 1065 1148 1140 836 725 864 1271 143 543 546 403 297 219 532 815 1444 1751 1748 1677 1593 1704 1908 2016 2255 2278 2059 1960 1908 2040 2222 2292 2332 2237 1984 1832 2015 2124 2158 2104
1427 1139 1390 1257 1327 969 965 966 1310 1717 1372 1446 491 540 454 331 222 626 866 1515 1729 1626 1578 1538 1751 1836 1855 2246 2220 1942 1852 2000 1912 1832 1950 2002 1799 1442 1289 1329 1345 1425
2028 1876 2166 2388 1920 1559 1284 1456 1896 1876 1408 1539 1164 1840 829 438 140 374 632 924 1414 1529 1441 1518 1574 1782 1966 1796 2144 2078 1744 1603 1710 1659 1508 1458 1422 1308 1160 1175 1164 1111
1721 1852 2232 1801 2173 2049 2103 2298 2356 2182 1590 1427 1398 1476 979 898 1233 1260 293 740 868 1307 1419 1388 1515 1717 1902 1801 1803 2098 2006 1685 1488 1478 1480 1276 1004 1044 1075 1035 1118 1164
1538 1632 1842 1699 1906 2189 2796 2357 2257 2292 2127 1581 1730 1660 1318 1293 1223 1095 1099 1242 942 827 1159 1386 1442 1536 1767 1905 1818 1825 2012 1955 1701 1443 1278 1165 989 787 864 981 1004 992
1162 1412 1528 1399 1393 1518 2524 2264 2265 2323 2207 2059 1879 1651 1511 1558 1493 1235 1291 1302 1280 1518 1011 992 1229 1384 1485 1554 1731 1815 1792 1862 1789 1676 1410 1107 918 848 491 516 793 842
1066 1039 1126 1301 1418 1681 1866 2196 2101 2117 2258 2372 2284 1987 1939 1899 1882 1717 1571 1412 1339 1485 1547 1662 1345 1041 1134 1208 1233 1403 1686 1766 1712 1657 1580 1363 1022 646 534 510 403 495
877 984 1042 1064 1240 1884 1702 1797 1722 2004 2225 2429 2409 2553 2372 2197 1989 1941 1697 1619 1496 1333 1238 1380 1580 1635 1441 1125 891 920 942 1436 1560 1544 1486 1413 1277 1006 646 276 385 481
424 712 867 1045 1104 1335 1165 1244 1384 1684 1965 2272 2090 2182 2333 2526 2453 2208 1984 1713 1641 1574 1420 1426 1598 1620 1777 1689 1492 1422 1360 1207 1061 1276 1320 1256 1144 1075 950 754 407 413
341 436 617 748 882 1053 965 1008 1043 1311 1387 1722 1741 1753 1643 1772 1961 1922 1882 1862 1719 1650 1573 1525 1796 1547 1514 1840 1933 1756 1569 1553 1560 1379 1079 978 1035 887 768 97 233 432
399 456 422 394 436 693 909 978 1375 1180 1239 1679 1684 1642 1591 1497 1513 1549 1596 1724 1804 1799 1894 1893 1779 1808 1927 2078 2120 1905 1736 1786 1754 1492 1217 957 842 738 782 548 489 1083
326 369 381 420 462 503 583 775 822 902 874 1010 1352 1472 1612 1736 1910 1938 1913 1904 1873 1873 2131 2012 2060 2010 1989 1931 1874 1892 1848 1722 1582 1423 1216 1083 849 699 702 739 691 1222
216 272 343 340 280 272 382 544 724 851 809 828 1430 1715 1724 1756 1846 1779 1734 1684 1704 1748 1686 1650 1683 1827 1925 1940 1854 1690 1510 1450 1454 1545 1618 1569 1204 818 666 601 809 880
Wind_Speed
6 7 5 6 6 6 5 5 4 4 3 5 5 5 5 5 6 4 3 3 3 4 4 5 5 5 5 6 6 5 5 6 6 6 7 6 8 8 9 8 9 9
6 6 7 7 7 7 6 5 4 4 3 2 4 4 5 5 5 3 3 2 2 3 3 4 4 4 5 4 5 4 5 6 6 5 5 4 6 7 9 8 8 8
7 7 7 7 7 7 6 6 6 4 3 1 2 3 4 4 3 2 3 2 1 1 2 3 3 4 4 4 3 4 5 5 6 5 4 5 5 5 8 7 6 6
7 7 7 7 8 8 7 7 6 6 4 4 1 3 3 3 2 3 3 3 1 1 1 2 2 3 3 3 3 3 4 5 6 5 4 5 4 4 6 5 4 6
7 7 8 8 8 9 9 8 7 7 5 3 3 4 4 3 2 3 3 2 1 1 2 1 2 2 3 3 3 4 4 4 5 4 4 5 5 5 5 5 6 5
8 8 8 8 8 8 8 9 9 8 8 5 4 4 6 4 3 3 3 1 2 0 2 1 2 1 2 2 3 4 3 3 5 4 3 4 5 5 5 5 5 5
8 8 7 8 8 9 8 9 9 8 8 8 7 6 7 6 5 4 4 2 2 2 1 2 1 1 1 0 1 3 4 3 4 3 3 5 5 6 7 5 4 4
10 9 9 9 7 11 9 9 10 11 8 11 8 8 7 7 6 6 5 4 4 4 3 1 1 2 2 2 1 1 3 3 3 3 3 4 4 6 8 6 3 3
13 12 11 9 7 12 10 10 11 12 10 10 10 9 9 8 7 7 6 5 5 4 4 3 0 1 1 3 2 1 1 4 4 3 3 4 5 5 6 7 5 4
22 21 12 9 9 11 13 12 13 13 13 10 12 12 9 10 7 6 8 6 5 6 4 5 2 1 1 2 3 2 2 3 5 5 3 3 4 5 6 6 6 5
24 25 27 23 18 15 12 13 14 13 15 13 12 13 11 11 10 8 9 8 5 5 6 5 4 3 1 2 3 3 2 2 2 5 5 3 3 5 6 6 5 5
21 23 22 22 21 22 23 17 13 14 14 14 13 12 14 10 11 10 9 9 8 7 7 6 7 5 4 2 3 4 3 2 2 3 5 4 3 4 5 6 6 5
20 21 23 24 23 22 21 23 21 13 15 13 13 12 12 12 10 11 10 9 9 8 8 8 8 8 6 5 4 5 4 4 3 3 3 5 6 4 5 6 6 7
28 28 27 27 28 25 22 20 21 24 18 13 14 11 10 12 12 11 12 12 10 9 8 9 9 8 8 7 6 5 6 5 4 3 3 3 5 6 6 6 6 6
23 24 24 25 25 26 25 22 21 23 26 24 14 12 12 11 15 13 13 13 13 13 11 10 10 9 10 10 8 6 5 6 5 4 4 3 4 5 6 6 7 7
25 26 27 27 27 25 24 23 23 24 24 23 24 21 19 16 13 14 13 13 14 14 14 14 12 11 11 13 12 10 8 5 7 6 5 5 5 5 6 6 5 6
26 26 25 27 27 25 25 25 25 25 25 24 23 21 21 20 22 20 16 11 13 13 13 13 13 12 13 13 12 12 11 9 6 7 8 6 7 7 6 6 8 7
27 27 29 30 29 26 24 25 26 26 25 24 23 25 24 22 20 19 19 20 16 13 13 12 11 11 14 14 12 11 10 11 10 8 8 9 8 8 8 8 8 8
27 27 28 29 28 25 24 26 28 28 28 27 27 26 27 26 24 22 21 20 20 19 17 13 12 11 12 13 12 12 11 10 11 10 8 8 10 10 10 10 10 10
22 24 26 27 28 28 28 28 29 28 28 28 26 26 26 25 24 23 22 22 20 19 19 18 17 16 12 11 12 12 12 12 11 11 10 9 8 9 11 11 11 11
22 23 24 27 29 30 32 31 30 29 29 29 29 27 26 24 23 23 23 24 24 24 24 21 20 20 20 17 15 13 12 13 13 12 12 12 11 11 11 12 13 13
24 25 26 26 27 31 34 35 34 32 30 30 30 29 27 25 22 22 23 24 25 26 26 25 26 40 51 45 32 25 22 22 20 17 15 15 14 15 15 14 15 15
27 25 24 23 23 24 25 28 30 31 31 30 30 28 28 26 24 22 23 24 26 26 25 27 29 46 45 45 43 40 34 29 26 24 22 20 17 18 19 nan 19 19
29 29 27 26 24 20 20 21 23 25 27 29 30 29 29 29 28 27 26 26 26 26 26 26 32 37 39 37 33 35 34 30 28 29 23 19 17 18 19 20 20 15
30 29 28 28 25 21 21 21 21 22 23 24 25 27 29 30 31 30 30 29 28 30 36 36 36 30 32 28 29 31 35 31 30 31 28 24 22 20 21 21 21 21
32 30 29 29 27 25 23 23 24 24 24 23 23 24 27 29 31 32 31 31 30 31 32 34 31 26 24 21 26 35 40 35 33 31 29 28 28 27 26 24 22 22
Wind_Direction
225 217 222 226 234 235 228 230 218 236 193 162 155 131 108 111 112 124 85 116 124 129 123 116 119 108 104 120 114 126 120 96 91 78 84 90 99 106 108 112 119 106
218 219 217 220 225 234 238 241 242 256 239 163 132 117 109 102 97 107 102 96 94 104 108 101 110 110 111 110 103 108 113 118 106 103 86 91 86 94 102 101 94 103
211 216 223 220 220 222 239 248 238 245 249 225 136 112 100 90 91 87 84 106 70 76 82 90 98 103 103 105 107 122 111 113 109 123 96 99 87 92 101 103 101 102
209 215 220 218 216 210 217 238 231 224 232 233 153 160 106 114 90 81 82 87 80 142 73 93 83 104 109 112 142 139 119 118 127 141 132 116 115 111 113 115 122 119
223 220 223 219 213 213 212 220 226 224 235 223 192 172 168 166 136 102 95 72 26 109 66 64 100 107 130 137 146 130 137 126 135 142 147 127 123 130 128 132 131 136
226 225 229 224 216 226 221 214 214 225 223 225 210 193 181 173 167 132 138 96 57 149 38 71 41 93 96 154 135 126 150 146 139 157 158 146 135 126 131 129 132 141
242 237 240 234 219 227 232 217 219 227 219 219 216 204 195 197 183 168 165 145 127 140 19 45 9 14 20 236 146 142 156 162 158 177 164 150 146 131 126 130 112 130
244 243 243 240 235 229 233 224 224 226 223 217 225 213 208 205 199 186 182 175 159 150 161 6 11 3 349 318 299 177 162 185 158 180 179 158 156 141 133 146 122 121
239 234 234 243 250 231 237 232 228 227 227 221 218 221 215 214 208 199 203 195 177 172 151 168 145 22 309 311 306 281 191 180 198 212 195 170 171 149 140 143 150 139
227 218 230 239 243 238 238 237 229 226 229 225 220 217 223 215 219 222 217 210 198 191 170 184 193 183 230 283 307 305 241 212 187 208 216 192 176 175 162 158 147 151
224 225 220 215 214 224 243 246 235 236 227 229 222 217 222 222 221 226 226 227 225 207 199 199 219 216 210 230 250 270 293 260 203 212 220 218 208 191 176 169 162 159
236 237 225 222 221 217 210 219 251 247 249 237 230 226 222 233 237 230 232 235 233 227 221 220 227 233 227 219 222 234 258 266 252 216 232 237 223 212 194 194 184 173
242 234 227 225 227 221 217 215 207 234 260 260 253 242 235 242 245 248 245 249 246 242 235 234 234 241 241 231 222 216 229 245 241 241 220 224 233 233 218 208 199 195
227 224 223 219 214 216 221 216 218 211 220 257 268 267 267 253 258 260 259 262 265 263 263 256 256 254 257 255 247 237 228 226 245 247 242 223 220 226 224 219 211 203
225 227 229 229 223 215 209 210 215 220 220 215 230 275 270 263 257 275 273 275 279 285 280 280 281 284 276 275 275 273 253 242 244 249 256 252 235 228 229 224 217 212
218 223 228 233 232 225 218 216 216 225 223 223 219 220 226 228 237 260 280 280 283 286 289 288 288 283 293 317 304 286 285 274 258 254 250 252 256 243 233 233 228 219
224 224 226 229 230 234 231 224 228 229 227 223 224 227 231 232 230 224 227 261 277 278 285 286 284 279 302 310 312 315 292 280 273 255 250 252 254 257 248 240 231 232
228 231 231 228 231 236 237 236 235 236 237 231 220 221 228 230 231 232 231 227 235 260 277 276 273 287 301 305 308 307 294 272 262 251 243 243 241 247 249 246 240 236
225 225 227 228 227 225 226 233 235 237 238 233 225 223 221 220 219 224 222 230 235 235 240 251 257 275 290 295 303 307 305 283 258 256 247 236 235 233 234 238 238 233
225 226 225 228 225 222 221 223 226 231 235 235 232 229 228 225 222 217 218 220 227 235 239 235 241 247 266 272 280 294 298 285 258 258 256 249 242 238 235 235 235 234
228 230 229 226 223 222 223 222 221 223 229 232 233 234 231 230 229 224 221 221 220 221 224 233 238 244 253 257 252 253 259 267 251 247 243 243 244 242 240 240 239 238
228 227 228 223 222 222 222 223 222 223 225 230 233 232 232 233 230 229 226 226 227 225 223 221 226 229 234 236 230 223 225 240 239 238 235 233 237 239 240 240 241 242
239 233 235 231 224 221 224 223 222 225 227 229 232 235 236 234 232 230 230 230 229 231 230 231 233 241 244 247 251 258 257 255 248 242 234 228 230 237 239 nan 240 244
240 241 240 239 231 233 231 225 230 231 233 234 234 236 236 236 235 232 232 233 232 232 234 234 241 241 247 253 258 267 272 270 273 272 269 258 244 240 244 246 246 247
255 253 252 253 251 246 245 241 240 238 236 237 239 240 239 238 236 236 238 239 237 235 234 237 243 240 250 256 256 256 258 255 261 264 267 269 266 258 254 250 248 249
253 256 256 257 256 251 247 248 246 243 240 239 240 240 238 235 234 236 237 241 244 241 242 244 247 248 251 246 248 255 256 250 246 251 250 247 246 247 248 251 253 254